Weather History for Mandan, ND

Change the Weather History Date:

Tuesday, August 6, 2013

  Actual Average (KBIS) Record (KBIS)
Temperature  
Mean Temperature 65 °F 72 °F  
Max Temperature 75 °F 86 °F 104 °F (1961)
Min Temperature 55 °F 58 °F 42 °F (1993)
Degree Days  
Heating Degree Days 0 1  
Month to date heating degree days 3  
Since 1 June heating degree days 113  
Since 1 July heating degree days 20  
Cooling Degree Days 0 7  
Month to date cooling degree days 42  
Year to date cooling degree days 346  
Since 1 June cooling degree days 329  
Growing Degree Days 15 (Base 50)    
Moisture  
Dew Point 59 °F    
Average Humidity 79    
Maximum Humidity 100    
Minimum Humidity 47    
Precipitation  
Precipitation 0.00 in 0.07 in 2.59 in (1965)
Month to date precipitation 0.47  
Year to date precipitation 12.00  
Snow  
Snow 0.00 in 0.00 in 0.00 in (2002)
Month to date snowfall 0.0  
Since 1 June snowfall 0.0  
Since 1 July snowfall 0.0  
Snow Depth -    
Sea Level Pressure  
Sea Level Pressure 29.84 in    
Wind  
Wind Speed 10 mph (NW)    
Max Wind Speed 23 mph    
Max Gust Speed 31 mph    
Visibility 10 miles    
Events      
T = Trace of Precipitation, MM = Missing Value Source: NWS Daily Summary

Daily Weather History Graph

Daily Weather History Graph

Search for Another Location

Airport:

Trip Planner

Search our weather history database for the weather conditions in past years. The results will help you decide how hot, cold, wet, or windy it might be!

Date:

Astronomy

Aug. 06, 2013 Rise Set
Actual Time 6:30 AM CDT 9:07 PM CDT
Civil Twilight 5:55 AM CDT 9:42 PM CDT
Nautical Twilight 5:12 AM CDT 10:25 PM CDT
Astronomical Twilight 4:21 AM CDT 11:15 PM CDT
Moon 6:27 AM CDT (8/6) 8:37 PM CDT (8/6)
Length of Visible Light 15h 46m
Length of Day
14h 37m
Waning Crescent, 0% of the Moon is Illuminated
Aug 6
Waning Crescent
Aug 6
New
Aug 14
First Quarter
Aug 20
Full
Aug 28
Last Quarter

Hourly Weather History & Observations

Time (CDT) Temp. Dew Point Humidity Pressure Visibility Wind Dir Wind Speed Gust Speed Precip Events Conditions
12:15 AM 66.2 °F 59.0 °F 78% 29.81 in 10.0 mi SSW 8.1 mph - N/A   Clear
12:35 AM 64.4 °F 62.6 °F 94% 29.80 in 10.0 mi SW 8.1 mph - N/A   Clear
12:55 AM 64.4 °F 62.6 °F 94% 29.80 in 10.0 mi SW 8.1 mph - N/A   Clear
1:15 AM 64.4 °F 62.6 °F 94% 29.80 in 10.0 mi SSW 10.4 mph - N/A   Clear
1:35 AM 66.2 °F 62.6 °F 88% 29.80 in 10.0 mi South 6.9 mph - N/A   Clear
1:55 AM 66.2 °F 62.6 °F 88% 29.80 in 10.0 mi West 6.9 mph - N/A   Clear
2:15 AM 62.6 °F 62.6 °F 100% 29.80 in 10.0 mi NNW 6.9 mph - N/A   Clear
2:35 AM 62.6 °F 62.6 °F 100% 29.78 in 10.0 mi NW 3.5 mph - N/A   Clear
2:55 AM 59.0 °F 59.0 °F 100% 29.77 in 10.0 mi WNW 3.5 mph - N/A   Clear
3:15 AM 60.8 °F 60.8 °F 100% 29.77 in 10.0 mi Calm Calm - N/A   Clear
3:35 AM 62.6 °F 59.0 °F 88% 29.76 in 10.0 mi ENE 3.5 mph - N/A   Clear
3:55 AM 62.6 °F 60.8 °F 94% 29.77 in 10.0 mi East 5.8 mph - N/A   Clear
4:15 AM 59.0 °F 59.0 °F 100% 29.77 in 10.0 mi East 4.6 mph - N/A   Clear
4:35 AM 59.0 °F 59.0 °F 100% 29.77 in 10.0 mi ENE 4.6 mph - N/A   Clear
4:55 AM 59.0 °F 59.0 °F 100% 29.77 in 10.0 mi ENE 5.8 mph - N/A   Clear
5:15 AM 57.2 °F 57.2 °F 100% 29.78 in 10.0 mi SE 4.6 mph - N/A   Clear
5:35 AM 55.4 °F 55.4 °F 100% 29.78 in 10.0 mi SSW 5.8 mph - N/A   Clear
5:55 AM 55.4 °F 55.4 °F 100% 29.78 in 10.0 mi SW 9.2 mph - N/A   Clear
6:15 AM 55.4 °F 55.4 °F 100% 29.78 in 10.0 mi SW 9.2 mph - N/A   Clear
6:35 AM 55.4 °F 55.4 °F 100% 29.78 in 10.0 mi WSW 12.7 mph - N/A   Clear
6:55 AM 57.2 °F 57.2 °F 100% 29.78 in 10.0 mi WSW 11.5 mph - N/A   Clear
7:15 AM 57.2 °F 57.2 °F 100% 29.79 in 10.0 mi SW 13.8 mph - N/A   Clear
7:35 AM 59.0 °F 59.0 °F 100% 29.79 in 10.0 mi WSW 10.4 mph - N/A   Clear
7:55 AM 59.0 °F 59.0 °F 100% 29.79 in 10.0 mi West 10.4 mph 16.1 mph N/A   Clear
8:15 AM 62.6 °F 60.8 °F 94% 29.80 in 10.0 mi West 13.8 mph 18.4 mph N/A   Clear
8:35 AM 64.4 °F 60.8 °F 88% 29.80 in 10.0 mi West 15.0 mph 19.6 mph N/A   Clear
8:55 AM 64.4 °F 62.6 °F 94% 29.80 in 10.0 mi West 12.7 mph 21.9 mph N/A   Clear
9:15 AM 66.2 °F 62.6 °F 88% 29.80 in 10.0 mi WNW 17.3 mph - N/A   Partly Cloudy
9:35 AM 66.2 °F 62.6 °F 88% 29.81 in 10.0 mi WNW 18.4 mph - N/A   Partly Cloudy
9:55 AM 68.0 °F 62.6 °F 83% 29.81 in 10.0 mi WNW 17.3 mph - N/A   Clear
10:15 AM 68.0 °F 62.6 °F 83% 29.82 in 10.0 mi NW 13.8 mph - N/A   Clear
10:35 AM 71.6 °F 62.6 °F 73% 29.82 in 10.0 mi NW 12.7 mph 18.4 mph N/A   Partly Cloudy
10:55 AM 71.6 °F 62.6 °F 73% 29.82 in 8.0 mi NNW 13.8 mph 19.6 mph N/A   Scattered Clouds
11:15 AM 71.6 °F 62.6 °F 73% 29.82 in 10.0 mi NNW 17.3 mph 21.9 mph N/A   Mostly Cloudy
11:35 AM 71.6 °F 62.6 °F 73% 29.82 in 10.0 mi North 13.8 mph 17.3 mph N/A   Mostly Cloudy
11:55 AM 73.4 °F 62.6 °F 69% 29.82 in 10.0 mi North 11.5 mph - N/A   Mostly Cloudy
12:15 PM 73.4 °F 59.0 °F 61% 29.82 in 10.0 mi NW 13.8 mph 20.7 mph N/A   Mostly Cloudy
12:35 PM 73.4 °F 55.4 °F 53% 29.82 in 10.0 mi WNW 13.8 mph 26.5 mph N/A   Mostly Cloudy
12:55 PM 75.2 °F 55.4 °F 50% 29.82 in 10.0 mi WNW 13.8 mph - N/A   Mostly Cloudy
1:15 PM 73.4 °F 55.4 °F 53% 29.82 in 10.0 mi WNW 15.0 mph - N/A   Mostly Cloudy
1:35 PM 75.2 °F 55.4 °F 50% 29.82 in 10.0 mi WNW 17.3 mph 25.3 mph N/A   Mostly Cloudy
1:55 PM 75.2 °F 55.4 °F 50% 29.82 in 10.0 mi WNW 16.1 mph 28.8 mph N/A   Mostly Cloudy
2:15 PM 75.2 °F 53.6 °F 47% 29.82 in 10.0 mi WNW 19.6 mph 31.1 mph N/A   Overcast
2:35 PM 73.4 °F 57.2 °F 57% 29.83 in 10.0 mi NW 19.6 mph 27.6 mph N/A   Mostly Cloudy
2:55 PM 75.2 °F 57.2 °F 53% 29.84 in 10.0 mi NW 20.7 mph 31.1 mph N/A   Mostly Cloudy
3:15 PM 75.2 °F 57.2 °F 53% 29.84 in 10.0 mi NW 23.0 mph 31.1 mph N/A   Scattered Clouds
3:35 PM 75.2 °F 57.2 °F 53% 29.84 in 10.0 mi NW 19.6 mph 29.9 mph N/A   Partly Cloudy
3:55 PM 75.2 °F 57.2 °F 53% 29.85 in 10.0 mi NW 17.3 mph 29.9 mph N/A   Partly Cloudy
4:15 PM 73.4 °F 57.2 °F 57% 29.86 in 10.0 mi NNW 20.7 mph 28.8 mph N/A   Mostly Cloudy
4:35 PM 71.6 °F 59.0 °F 64% 29.88 in 10.0 mi North 18.4 mph 26.5 mph N/A   Mostly Cloudy
4:55 PM 68.0 °F 59.0 °F 73% 29.88 in 10.0 mi North 19.6 mph 25.3 mph N/A   Mostly Cloudy
5:15 PM 68.0 °F 59.0 °F 73% 29.89 in 10.0 mi NNW 16.1 mph 23.0 mph N/A   Scattered Clouds
5:35 PM 69.8 °F 59.0 °F 68% 29.90 in 10.0 mi NNW 17.3 mph 20.7 mph N/A   Partly Cloudy
5:55 PM 68.0 °F 57.2 °F 68% 29.91 in 10.0 mi NNW 16.1 mph 19.6 mph N/A   Clear
6:15 PM 68.0 °F 57.2 °F 68% 29.91 in 10.0 mi NNE 11.5 mph - N/A   Scattered Clouds
6:35 PM 68.0 °F 57.2 °F 68% 29.92 in 10.0 mi North 10.4 mph 18.4 mph N/A   Scattered Clouds
6:55 PM 68.0 °F 57.2 °F 68% 29.91 in 10.0 mi North 12.7 mph 16.1 mph N/A   Partly Cloudy
7:15 PM 68.0 °F 57.2 °F 68% 29.92 in 10.0 mi North 11.5 mph - N/A   Clear
7:35 PM 68.0 °F 57.2 °F 68% 29.92 in 10.0 mi NNW 10.4 mph - N/A   Partly Cloudy
7:55 PM 68.0 °F 57.2 °F 68% 29.92 in 10.0 mi North 9.2 mph - N/A   Partly Cloudy
8:15 PM 66.2 °F 55.4 °F 68% 29.92 in 10.0 mi NNE 6.9 mph - N/A   Partly Cloudy
8:35 PM 66.2 °F 57.2 °F 73% 29.93 in 10.0 mi NNE 3.5 mph - N/A   Clear
8:55 PM 64.4 °F 57.2 °F 77% 29.93 in 10.0 mi NE 4.6 mph - N/A   Clear
9:15 PM 64.4 °F 57.2 °F 77% 29.94 in 10.0 mi NE 4.6 mph - N/A   Clear
9:35 PM 62.6 °F 55.4 °F 77% 29.94 in 10.0 mi Calm Calm - N/A   Clear
9:55 PM 64.4 °F 55.4 °F 73% 29.95 in 10.0 mi ENE 3.5 mph - N/A   Clear
10:15 PM 62.6 °F 57.2 °F 82% 29.95 in 10.0 mi East 6.9 mph - N/A   Clear
10:35 PM 62.6 °F 57.2 °F 82% 29.95 in 10.0 mi ESE 4.6 mph - N/A   Clear
10:55 PM 62.6 °F 57.2 °F 82% 29.95 in 10.0 mi ESE 5.8 mph - N/A   Mostly Cloudy
11:15 PM 62.6 °F 57.2 °F 82% 29.94 in 10.0 mi SE 6.9 mph - N/A   Mostly Cloudy
11:35 PM 59.0 °F 59.0 °F 100% 29.95 in 10.0 mi South 3.5 mph - N/A   Mostly Cloudy
11:55 PM 59.0 °F 59.0 °F 100% 29.96 in 10.0 mi South 5.8 mph - N/A   Partly Cloudy